FENGYUN 1C DEB

Satellite information

Favourite Embed

Satellite Type and Status

DEBRISIN ORBIT

Key statistics

Satellite FENGYUN 1C DEB at a glance.

Uptime

9665

Days in orbit

Revolutions

≈ 14.2

Per day

Orbit

SSO

Sun Synchronous Orbit

Inclination

98.5

Latest

Satellite identification and parameters

Extended collection of information and parameters for FENGYUN 1C DEB.

Object identification

Identified? True

Debris? True

Object name: FENGYUN 1C DEB

International designator: 1999-025EEN

Object number (NORAD): 37054

Object ID (CCSDS): 37054

Country: PEOPLES REPUBLIC OF CHINA (PRC)

Current information (Y/N): Y

RCS size: SMALL

Orbital parameters

Period: 101.454 minutes

Inclination: 98.547 deg

SMA: 7205.627 km

Apoapsis: 898.926 km

Periapsis: 756.059 km

RAAN: 281.8586 deg

Eccentricy: 0.00991363

Argument of periapsis: 247.2683 deg

Mean anomaly: 111.7993 deg

Mean motion: 14.19368139 rev/day

Mean motion (dot): 0.00000844 rev/day2

B* drag term: 0.0004018916 1/REarth

Two-line elements (TLE)

Creation date: Oct. 25, 2025, 3:11 a.m.

Reference frame: TEME

Reference center: EARTH

Epoch: Oct. 24, 2025, 4:36 p.m. UTC

TLE line 0: 0 FENGYUN 1C DEB

TLE line 1: 1 37054U 99025EEN 25297.69214793 .00000844 00000-0 40189-3 0 9991

TLE line 2: 2 37054 98.5470 281.8586 0099136 247.2683 111.7993 14.19368139637330

Live tracking on map

Real-time ground track for satellite FENGYUN 1C DEB.

In-orbit conjunctions

A list of the most updated potential collisions computed for object FENGYUN 1C DEB.

Target Orbit TCA Probability of collision Miss distance Type
SL-8 R/B LEO 2025-06-12 17:29:03 0.0006765673 75.0 (m) ROCKET BODY
FENGYUN 1C DEB SSO 2024-11-09 05:20:47 0.0004927903 479.0 (m) DEBRIS

Associated space launch

Chinese polar orbiting meteorological satellite

FENGYUN 1C DEB was lifted into orbit during the mission ‘Long March 4B | Feng Yun 1C’, on board a Long March 4B space rocket.

The launch took place on May 10, 1999, 1:33 a.m. from Launch Complex 7.

For more information about the launch, click the button.

Launch to space Long March 4B | Feng Yun 1C
Long March 4B | Feng Yun 1C

Agency: N/A

Status: Launch Successful

Launch date: May 10, 1999, 1:33 a.m. UTC

Rocket: Long March 4B

Launch pad: Launch Complex 7

Location: Taiyuan Satellite Launch Center, People's Republic of China

...

Latest news about this satellite

There are no fresh news available about this satellite. Check back as we update our databases every day.


Newsletter sign-up

Weekly statistics, charts and insights to help you stay on top of the space industry.